IGO1103 VABB-VRMM

Flight info

Callsign IGO1103
Flight time 2h 35m
Altitude 35000
Route VEVAK2A MABTA W15 MML/N0455F360 DCT AKLON DCT OSERA DCT PATLO PATLO1A
Aircraft A320/M-SDE3FGHIRWY/LB1

Departure

Time 2026-04-28 07:29
Airport Chhatrapati Shivaji Maharaj International Airport (VABB)

Arrival

Time 2026-04-28 10:04
Airport Velana International Airport (VRMM)
Time Latitude Longitude Altitude Speed Heading
2026-04-28 07:04 19.09418 72.87280 49 ft 0 kts 299°
2026-04-28 07:14 19.09413 72.87290 46 ft 4 kts 299°
2026-04-28 07:15 19.09400 72.87314 47 ft 4 kts 299°
2026-04-28 07:15 19.09389 72.87336 49 ft 1 kts 299°
2026-04-28 07:15 19.09377 72.87359 49 ft 4 kts 299°
2026-04-28 07:15 19.09370 72.87372 45 ft 4 kts 14°
2026-04-28 07:16 19.09350 72.87362 44 ft 4 kts 10°
2026-04-28 07:16 19.09335 72.87361 47 ft 0 kts 14°
2026-04-28 07:20 19.09343 72.87363 47 ft 2 kts 14°
2026-04-28 07:20 19.09361 72.87372 46 ft 4 kts 31°
2026-04-28 07:21 19.09384 72.87393 49 ft 5 kts 45°
2026-04-28 07:21 19.09409 72.87427 49 ft 7 kts 48°
2026-04-28 07:21 19.09419 72.87476 49 ft 8 kts 106°
2026-04-28 07:22 19.09342 72.87575 49 ft 10 kts 131°
2026-04-28 07:22 19.09302 72.87625 48 ft 0 kts 129°
2026-04-28 07:22 19.09299 72.87628 49 ft 0 kts 130°
2026-04-28 07:22 19.09294 72.87635 49 ft 2 kts 129°
2026-04-28 07:23 19.09286 72.87652 49 ft 0 kts 112°
2026-04-28 07:23 19.09283 72.87657 47 ft 1 kts 127°
2026-04-28 07:23 19.09277 72.87659 48 ft 2 kts 148°
2026-04-28 07:23 19.09261 72.87665 49 ft 3 kts 161°
2026-04-28 07:24 19.09235 72.87672 49 ft 5 kts 171°
2026-04-28 07:24 19.09198 72.87673 49 ft 6 kts 180°
2026-04-28 07:24 19.09154 72.87687 49 ft 7 kts 135°
2026-04-28 07:24 19.09143 72.87745 49 ft 9 kts 90°
2026-04-28 07:25 19.09111 72.87797 46 ft 10 kts 168°
2026-04-28 07:25 19.09042 72.87806 47 ft 9 kts 179°
2026-04-28 07:25 19.09007 72.87806 48 ft 0 kts 179°
2026-04-28 07:26 19.09004 72.87806 48 ft 1 kts 180°
2026-04-28 07:26 19.08988 72.87806 48 ft 3 kts 180°
2026-04-28 07:27 19.08957 72.87806 48 ft 6 kts 180°
2026-04-28 07:27 19.08912 72.87806 48 ft 7 kts 180°
2026-04-28 07:27 19.08886 72.87764 48 ft 8 kts 261°
2026-04-28 07:27 19.08885 72.87713 48 ft 7 kts 269°
2026-04-28 07:28 19.08884 72.87654 47 ft 9 kts 269°
2026-04-28 07:28 19.08882 72.87580 48 ft 11 kts 269°
2026-04-28 07:28 19.08880 72.87395 50 ft 53 kts 269°
2026-04-28 07:28 19.08871 72.86788 52 ft 109 kts 269°
2026-04-28 07:29 19.08859 72.85822 49 ft 152 kts 269°
2026-04-28 07:29 19.08835 72.84635 417 ft 160 kts 267°
2026-04-28 07:29 19.08833 72.83440 934 ft 163 kts 270°
2026-04-28 07:29 19.08821 72.82225 1366 ft 170 kts 269°
2026-04-28 07:30 19.08802 72.80895 1531 ft 192 kts 269°
2026-04-28 07:30 19.08780 72.79402 1682 ft 214 kts 269°
2026-04-28 07:30 19.08755 72.77757 1879 ft 239 kts 271°
2026-04-28 07:30 19.08724 72.75918 2234 ft 259 kts 270°
2026-04-28 07:31 19.08367 72.74023 2851 ft 272 kts 245°
2026-04-28 07:31 19.07052 72.72565 3521 ft 283 kts 210°
2026-04-28 07:31 19.05134 72.72078 4217 ft 291 kts 177°
2026-04-28 07:31 19.03216 72.72747 4876 ft 296 kts 145°
2026-04-28 07:32 19.01569 72.74060 5566 ft 298 kts 147°
2026-04-28 07:32 18.99646 72.74825 6265 ft 297 kts 174°
2026-04-28 07:32 18.97614 72.74853 6966 ft 296 kts 183°
2026-04-28 07:32 18.95562 72.74794 7691 ft 295 kts 183°
2026-04-28 07:33 18.93507 72.74728 8425 ft 295 kts 182°
2026-04-28 07:33 18.91462 72.74665 9199 ft 293 kts 182°
2026-04-28 07:33 18.89425 72.74603 9918 ft 293 kts 182°
2026-04-28 07:33 18.87328 72.74542 10141 ft 312 kts 182°
2026-04-28 07:34 18.85086 72.74480 10277 ft 332 kts 182°
2026-04-28 07:34 18.82734 72.74416 10636 ft 341 kts 182°
2026-04-28 07:34 18.80402 72.74353 11149 ft 344 kts 182°
2026-04-28 07:34 18.78761 72.74349 11529 ft 347 kts 177°
2026-04-28 07:35 18.75613 72.75006 12258 ft 352 kts 162°
2026-04-28 07:35 18.73286 72.75828 12806 ft 354 kts 162°
2026-04-28 07:35 18.70937 72.76650 13376 ft 356 kts 163°
2026-04-28 07:35 18.68576 72.77470 13899 ft 359 kts 163°
2026-04-28 07:36 18.66193 72.78295 14363 ft 362 kts 163°
2026-04-28 07:36 18.63788 72.79129 14819 ft 366 kts 163°
2026-04-28 07:36 18.61356 72.79971 15273 ft 369 kts 163°
2026-04-28 07:36 18.58937 72.80810 15710 ft 373 kts 163°
2026-04-28 07:37 18.56462 72.81667 16141 ft 377 kts 163°
2026-04-28 07:37 18.53962 72.82534 16593 ft 380 kts 163°
2026-04-28 07:37 18.51439 72.83413 17017 ft 384 kts 162°
2026-04-28 07:37 18.48893 72.84299 17440 ft 387 kts 163°
2026-04-28 07:38 18.47192 72.84890 17713 ft 390 kts 163°
2026-04-28 07:38 18.43721 72.86092 18265 ft 394 kts 163°
2026-04-28 07:38 18.41991 72.86692 18512 ft 396 kts 163°
2026-04-28 07:38 18.39362 72.87602 18904 ft 399 kts 163°
2026-04-28 07:39 18.35857 72.88815 19421 ft 402 kts 163°
2026-04-28 07:39 18.33192 72.89737 19818 ft 405 kts 163°
2026-04-28 07:39 18.30506 72.90666 20207 ft 407 kts 164°
2026-04-28 07:39 18.28722 72.91283 20462 ft 409 kts 164°
2026-04-28 07:40 18.25095 72.92536 20975 ft 412 kts 164°
2026-04-28 07:40 18.23289 72.93158 21228 ft 414 kts 164°
2026-04-28 07:40 18.20547 72.94102 21616 ft 416 kts 164°
2026-04-28 07:40 18.17789 72.95054 21984 ft 418 kts 164°
2026-04-28 07:41 18.15013 72.96014 22338 ft 421 kts 165°
2026-04-28 07:41 18.12226 72.96979 22694 ft 423 kts 165°
2026-04-28 07:41 18.09423 72.97949 23047 ft 425 kts 165°
2026-04-28 07:41 18.06614 72.98955 23400 ft 428 kts 163°
2026-04-28 07:42 18.02899 73.00420 23788 ft 432 kts 162°
2026-04-28 07:42 18.01044 73.01188 23981 ft 434 kts 161°
2026-04-28 07:42 17.98237 73.02367 24276 ft 436 kts 161°
2026-04-28 07:42 17.95416 73.03550 24565 ft 438 kts 162°
2026-04-28 07:43 17.92578 73.04725 24855 ft 440 kts 162°
2026-04-28 07:43 17.89718 73.05895 25134 ft 442 kts 162°
2026-04-28 07:43 17.86844 73.07058 25421 ft 444 kts 163°
2026-04-28 07:43 17.83954 73.08218 25699 ft 446 kts 163°
2026-04-28 07:44 17.81090 73.09366 25973 ft 448 kts 163°
2026-04-28 07:44 17.78173 73.10533 26243 ft 450 kts 163°
2026-04-28 07:44 17.75238 73.11709 26507 ft 452 kts 163°
2026-04-28 07:44 17.72296 73.12889 26767 ft 454 kts 163°
2026-04-28 07:45 17.69342 73.14079 27024 ft 456 kts 163°
2026-04-28 07:45 17.66377 73.15280 27272 ft 458 kts 164°
2026-04-28 07:45 17.63394 73.16486 27529 ft 460 kts 164°
2026-04-28 07:45 17.60398 73.17694 27786 ft 463 kts 164°
2026-04-28 07:46 17.57383 73.18910 28051 ft 465 kts 164°
2026-04-28 07:46 17.54398 73.20110 28319 ft 467 kts 164°
2026-04-28 07:46 17.51360 73.21333 28588 ft 469 kts 164°
2026-04-28 07:46 17.48311 73.22562 28900 ft 470 kts 165°
2026-04-28 07:47 17.45263 73.23788 29300 ft 469 kts 165°
2026-04-28 07:47 17.42214 73.25016 29670 ft 469 kts 165°
2026-04-28 07:47 17.39173 73.26240 30037 ft 468 kts 165°
2026-04-28 07:47 17.36133 73.27464 30341 ft 468 kts 165°
2026-04-28 07:48 17.33133 73.28669 30639 ft 468 kts 165°
2026-04-28 07:48 17.30092 73.29887 30962 ft 468 kts 165°
2026-04-28 07:48 17.27049 73.31103 31293 ft 467 kts 165°
2026-04-28 07:48 17.24014 73.32317 31641 ft 467 kts 166°
2026-04-28 07:49 17.20985 73.33531 31991 ft 466 kts 166°
2026-04-28 07:49 17.17961 73.34743 32344 ft 465 kts 166°
2026-04-28 07:49 17.14940 73.35947 32691 ft 464 kts 167°
2026-04-28 07:49 17.11866 73.36873 33030 ft 457 kts 173°
2026-04-28 07:50 17.08783 73.37669 33378 ft 456 kts 173°
2026-04-28 07:50 17.05703 73.38463 33709 ft 456 kts 173°
2026-04-28 07:50 17.02669 73.39245 34010 ft 455 kts 173°
2026-04-28 07:50 16.99600 73.40035 34323 ft 453 kts 173°
2026-04-28 07:51 16.96544 73.40821 34610 ft 452 kts 173°
2026-04-28 07:51 16.92505 73.41858 34832 ft 453 kts 173°
2026-04-28 07:51 16.87319 73.43190 34857 ft 462 kts 173°
2026-04-28 07:52 16.81060 73.44806 34853 ft 464 kts 173°
2026-04-28 07:52 16.74823 73.46424 34853 ft 465 kts 173°
2026-04-28 07:53 16.68551 73.48045 34855 ft 464 kts 172°
2026-04-28 07:53 16.62286 73.49650 34856 ft 463 kts 172°
2026-04-28 07:54 16.56025 73.51253 34873 ft 463 kts 172°
2026-04-28 07:54 16.49767 73.52873 34875 ft 463 kts 172°
2026-04-28 07:55 16.43545 73.54471 34870 ft 463 kts 172°
2026-04-28 07:55 16.37287 73.56066 34860 ft 463 kts 172°
2026-04-28 07:56 16.31026 73.57656 34858 ft 463 kts 172°
2026-04-28 07:56 16.24796 73.59221 34859 ft 464 kts 172°
2026-04-28 07:57 16.18523 73.60794 34859 ft 464 kts 172°
2026-04-28 07:57 16.12244 73.62378 34863 ft 464 kts 172°
2026-04-28 07:58 16.05970 73.63963 34868 ft 464 kts 172°
2026-04-28 07:58 15.99689 73.65541 34857 ft 464 kts 171°
2026-04-28 07:59 15.93450 73.67107 34864 ft 465 kts 171°
2026-04-28 07:59 15.87167 73.68685 34872 ft 465 kts 171°
2026-04-28 08:00 15.80880 73.70265 34870 ft 465 kts 171°
2026-04-28 08:00 15.74591 73.71842 34873 ft 465 kts 171°
2026-04-28 08:01 15.68311 73.73413 34877 ft 464 kts 171°
2026-04-28 08:01 15.62080 73.74969 34877 ft 463 kts 171°
2026-04-28 08:02 15.55815 73.76535 34873 ft 463 kts 171°
2026-04-28 08:02 15.49557 73.78094 34866 ft 462 kts 171°
2026-04-28 08:03 15.43305 73.79651 34854 ft 462 kts 171°
2026-04-28 08:03 15.37127 73.81347 34857 ft 466 kts 162°
2026-04-28 08:04 15.31145 73.83979 34855 ft 467 kts 160°
2026-04-28 08:04 15.25172 73.86617 34852 ft 467 kts 161°
2026-04-28 08:05 15.19191 73.89246 34847 ft 467 kts 161°
2026-04-28 08:05 15.13217 73.91876 34843 ft 467 kts 161°
2026-04-28 08:06 15.07276 73.94490 34842 ft 467 kts 161°
2026-04-28 08:06 15.01299 73.97112 34838 ft 467 kts 160°
2026-04-28 08:07 14.95321 73.99735 34835 ft 467 kts 160°
2026-04-28 08:07 14.89376 74.02346 34821 ft 467 kts 160°
2026-04-28 08:08 14.83390 74.04974 34825 ft 468 kts 160°
2026-04-28 08:08 14.77394 74.07600 34837 ft 468 kts 160°
2026-04-28 08:09 14.71394 74.10232 34843 ft 468 kts 160°
2026-04-28 08:09 14.65399 74.12865 34844 ft 468 kts 160°
2026-04-28 08:10 14.59438 74.15465 34842 ft 468 kts 161°
2026-04-28 08:10 14.53364 74.17879 34843 ft 467 kts 163°
2026-04-28 08:11 14.47262 74.20179 34846 ft 467 kts 163°
2026-04-28 08:11 14.41163 74.22500 34855 ft 467 kts 163°
2026-04-28 08:12 14.35118 74.24856 34852 ft 467 kts 162°
2026-04-28 08:12 14.29046 74.27235 34852 ft 467 kts 162°
2026-04-28 08:13 14.22967 74.29598 34857 ft 467 kts 162°
2026-04-28 08:13 14.16968 74.32175 34856 ft 468 kts 159°
2026-04-28 08:14 14.11100 74.34996 34855 ft 468 kts 158°
2026-04-28 08:14 14.05195 74.37832 34861 ft 468 kts 158°
2026-04-28 08:15 13.99262 74.40594 34862 ft 468 kts 159°
2026-04-28 08:15 13.93310 74.43321 34864 ft 468 kts 159°
2026-04-28 08:16 13.87409 74.46038 34866 ft 468 kts 159°
2026-04-28 08:16 13.81470 74.48791 34863 ft 468 kts 159°
2026-04-28 08:17 13.75535 74.51540 34865 ft 468 kts 159°
2026-04-28 08:17 13.69595 74.54285 34863 ft 468 kts 159°
2026-04-28 08:18 13.63697 74.57008 34862 ft 468 kts 159°
2026-04-28 08:18 13.57752 74.59753 34864 ft 468 kts 159°
2026-04-28 08:19 13.51811 74.62497 34861 ft 468 kts 159°
2026-04-28 08:19 13.45864 74.65241 34871 ft 468 kts 159°
2026-04-28 08:20 13.39957 74.67955 34869 ft 468 kts 159°
2026-04-28 08:20 13.34011 74.70690 34871 ft 468 kts 159°
2026-04-28 08:21 13.28063 74.73430 34874 ft 468 kts 159°
2026-04-28 08:21 13.22123 74.76172 34869 ft 468 kts 159°
2026-04-28 08:22 13.20158 74.77075 34868 ft 468 kts 159°
2026-04-28 08:23 13.00412 74.86136 34860 ft 467 kts 159°
2026-04-28 08:24 12.94314 74.88256 35167 ft 460 kts 173°
2026-04-28 08:24 12.91155 74.88589 35494 ft 454 kts 182°
2026-04-28 08:24 12.87997 74.88636 35768 ft 453 kts 182°
2026-04-28 08:25 12.81702 74.88728 35841 ft 452 kts 182°
2026-04-28 08:26 12.72327 74.88862 35840 ft 451 kts 182°
2026-04-28 08:26 12.66045 74.88942 35840 ft 451 kts 182°
2026-04-28 08:27 12.59761 74.89024 35832 ft 452 kts 181°
2026-04-28 08:27 12.53475 74.89110 35840 ft 452 kts 181°
2026-04-28 08:28 12.47223 74.89193 35848 ft 453 kts 181°
2026-04-28 08:28 12.40922 74.89276 35844 ft 453 kts 181°
2026-04-28 08:29 12.34624 74.89356 35850 ft 453 kts 182°
2026-04-28 08:29 12.28319 74.89439 35846 ft 453 kts 181°
2026-04-28 08:30 12.22003 74.89526 35848 ft 454 kts 181°
2026-04-28 08:30 12.15734 74.89608 35849 ft 454 kts 181°
2026-04-28 08:31 12.09426 74.89689 35848 ft 454 kts 181°
2026-04-28 08:31 12.03108 74.89766 35839 ft 454 kts 181°
2026-04-28 08:32 11.96795 74.89851 35843 ft 454 kts 181°
2026-04-28 08:32 11.90528 74.89937 35853 ft 453 kts 181°
2026-04-28 08:33 11.84226 74.90025 35842 ft 453 kts 181°
2026-04-28 08:33 11.77929 74.90109 35845 ft 452 kts 181°
2026-04-28 08:34 11.71635 74.90190 35839 ft 452 kts 181°
2026-04-28 08:34 11.65384 74.90272 35844 ft 452 kts 181°
2026-04-28 08:35 11.59090 74.90359 35840 ft 452 kts 181°
2026-04-28 08:35 11.52802 74.90440 35848 ft 452 kts 181°
2026-04-28 08:36 11.46514 74.90521 35852 ft 452 kts 181°
2026-04-28 08:36 11.40272 74.90602 35849 ft 452 kts 181°
2026-04-28 08:37 11.33986 74.90685 35850 ft 452 kts 181°
2026-04-28 08:37 11.27705 74.90752 35852 ft 451 kts 181°
2026-04-28 08:38 11.22481 74.90798 35850 ft 451 kts 181°
2026-04-28 08:38 11.16202 74.90854 35850 ft 451 kts 181°
2026-04-28 08:39 11.09923 74.90917 35849 ft 451 kts 181°
2026-04-28 08:39 11.03684 74.90977 35838 ft 451 kts 181°
2026-04-28 08:40 10.97405 74.91039 35843 ft 451 kts 181°
2026-04-28 08:40 10.91123 74.91100 35852 ft 451 kts 181°
2026-04-28 08:41 10.84850 74.91162 35854 ft 451 kts 181°
2026-04-28 08:41 10.78618 74.91221 35843 ft 451 kts 181°
2026-04-28 08:42 10.72350 74.91275 35843 ft 450 kts 181°
2026-04-28 08:42 10.66083 74.91332 35849 ft 450 kts 181°
2026-04-28 08:43 10.59821 74.91392 35848 ft 450 kts 181°
2026-04-28 08:43 10.53554 74.91455 35843 ft 450 kts 181°
2026-04-28 08:44 10.47341 74.91519 35852 ft 449 kts 181°
2026-04-28 08:44 10.41088 74.91580 35851 ft 449 kts 181°
2026-04-28 08:45 10.34844 74.91639 35853 ft 449 kts 181°
2026-04-28 08:45 10.28598 74.91700 35847 ft 449 kts 181°
2026-04-28 08:46 10.22358 74.91763 35851 ft 448 kts 181°
2026-04-28 08:46 10.16154 74.91822 35846 ft 449 kts 180°
2026-04-28 08:47 10.09907 74.91881 35847 ft 449 kts 180°
2026-04-28 08:47 10.03651 74.91931 35845 ft 449 kts 180°
2026-04-28 08:48 9.97396 74.91992 35845 ft 450 kts 180°
2026-04-28 08:48 9.91181 74.92052 35842 ft 450 kts 180°
2026-04-28 08:49 9.84919 74.92117 35843 ft 450 kts 180°
2026-04-28 08:49 9.78658 74.92188 35843 ft 450 kts 180°
2026-04-28 08:50 9.72393 74.92244 35840 ft 450 kts 180°
2026-04-28 08:50 9.66133 74.92296 35835 ft 450 kts 180°
2026-04-28 08:51 9.59914 74.92354 35840 ft 450 kts 180°
2026-04-28 08:51 9.53650 74.92416 35836 ft 450 kts 180°
2026-04-28 08:52 9.47392 74.92479 35840 ft 450 kts 179°
2026-04-28 08:52 9.41137 74.92539 35851 ft 449 kts 179°
2026-04-28 08:53 9.34886 74.92602 35854 ft 449 kts 179°
2026-04-28 08:53 9.28688 74.92660 35854 ft 449 kts 179°
2026-04-28 08:54 9.22442 74.92720 35853 ft 449 kts 179°
2026-04-28 08:54 9.16200 74.92782 35852 ft 449 kts 179°
2026-04-28 08:55 9.09952 74.92837 35841 ft 449 kts 179°
2026-04-28 08:55 9.03741 74.92893 35840 ft 450 kts 179°
2026-04-28 08:56 8.97478 74.92961 35843 ft 450 kts 179°
2026-04-28 08:56 8.91216 74.93025 35841 ft 450 kts 179°
2026-04-28 08:57 8.84947 74.93080 35844 ft 450 kts 179°
2026-04-28 08:57 8.78722 74.93133 35850 ft 451 kts 179°
2026-04-28 08:58 8.72448 74.93188 35844 ft 451 kts 179°
2026-04-28 08:58 8.66180 74.93259 35848 ft 451 kts 179°
2026-04-28 08:59 8.59905 74.93322 35852 ft 451 kts 179°
2026-04-28 08:59 8.53676 74.93374 35853 ft 451 kts 179°
2026-04-28 09:00 8.47401 74.93427 35848 ft 451 kts 179°
2026-04-28 09:00 8.41130 74.93488 35852 ft 451 kts 179°
2026-04-28 09:01 8.34852 74.93554 35845 ft 451 kts 179°
2026-04-28 09:01 8.28616 74.93619 35853 ft 451 kts 179°
2026-04-28 09:02 8.22334 74.93673 35848 ft 452 kts 179°
2026-04-28 09:02 8.16046 74.93735 35850 ft 452 kts 179°
2026-04-28 09:03 8.09761 74.93792 35848 ft 452 kts 179°
2026-04-28 09:03 8.03511 74.93843 35851 ft 452 kts 179°
2026-04-28 09:04 7.97221 74.93903 35843 ft 452 kts 179°
2026-04-28 09:04 7.90920 74.93970 35846 ft 453 kts 179°
2026-04-28 09:05 7.84626 74.94026 35849 ft 453 kts 179°
2026-04-28 09:05 7.78322 74.94085 35849 ft 453 kts 179°
2026-04-28 09:06 7.72064 74.94154 35850 ft 453 kts 179°
2026-04-28 09:06 7.65759 74.94211 35853 ft 453 kts 179°
2026-04-28 09:07 7.59458 74.94267 35851 ft 453 kts 179°
2026-04-28 09:07 7.53152 74.94328 35850 ft 453 kts 179°
2026-04-28 09:08 7.46890 74.94387 35855 ft 453 kts 179°
2026-04-28 09:08 7.40590 74.94441 35852 ft 453 kts 179°
2026-04-28 09:09 7.34282 74.94508 35855 ft 453 kts 179°
2026-04-28 09:09 7.27977 74.94574 35857 ft 453 kts 179°
2026-04-28 09:10 7.21722 74.94635 35853 ft 452 kts 179°
2026-04-28 09:10 7.15428 74.94688 35847 ft 452 kts 179°
2026-04-28 09:11 7.09134 74.94741 35853 ft 452 kts 179°
2026-04-28 09:11 7.02844 74.94798 35846 ft 452 kts 179°
2026-04-28 09:12 6.96592 74.94862 35856 ft 452 kts 178°
2026-04-28 09:12 6.90305 74.94927 35852 ft 452 kts 179°
2026-04-28 09:13 6.84013 74.94982 35857 ft 452 kts 179°
2026-04-28 09:13 6.77728 74.95042 35857 ft 452 kts 178°
2026-04-28 09:14 6.71480 74.95101 35851 ft 452 kts 179°
2026-04-28 09:14 6.65194 74.95161 35848 ft 452 kts 179°
2026-04-28 09:15 6.58909 74.95220 35845 ft 452 kts 178°
2026-04-28 09:15 6.52615 74.95286 35845 ft 452 kts 178°
2026-04-28 09:16 6.46317 74.95343 35845 ft 453 kts 179°
2026-04-28 09:16 6.40017 74.95393 35848 ft 453 kts 179°
2026-04-28 09:17 6.33751 74.95449 35849 ft 453 kts 178°
2026-04-28 09:17 6.27447 74.95510 35843 ft 453 kts 178°
2026-04-28 09:18 6.21143 74.95571 35850 ft 453 kts 178°
2026-04-28 09:18 6.14831 74.95634 35851 ft 453 kts 178°
2026-04-28 09:19 6.08564 74.95694 35848 ft 454 kts 178°
2026-04-28 09:19 6.02273 74.95294 35844 ft 455 kts 192°
2026-04-28 09:20 5.96451 74.92854 35844 ft 457 kts 213°
2026-04-28 09:20 5.91418 74.88942 35842 ft 458 kts 217°
2026-04-28 09:21 5.86451 74.84994 35841 ft 459 kts 217°
2026-04-28 09:21 5.81441 74.81022 35841 ft 459 kts 217°
2026-04-28 09:22 5.76428 74.77038 35842 ft 460 kts 217°
2026-04-28 09:22 5.71405 74.73047 35843 ft 460 kts 217°
2026-04-28 09:23 5.66417 74.69085 35842 ft 461 kts 217°
2026-04-28 09:23 5.61385 74.65097 35844 ft 461 kts 217°
2026-04-28 09:24 5.56364 74.61103 35848 ft 461 kts 217°
2026-04-28 09:24 5.51343 74.57102 35846 ft 461 kts 217°
2026-04-28 09:25 5.46320 74.53115 35855 ft 460 kts 217°
2026-04-28 09:25 5.41297 74.49203 35852 ft 459 kts 215°
2026-04-28 09:26 5.36138 74.45427 35760 ft 459 kts 214°
2026-04-28 09:26 5.33543 74.43562 35520 ft 458 kts 214°
2026-04-28 09:26 5.30958 74.41696 35286 ft 458 kts 214°
2026-04-28 09:26 5.28388 74.39826 34862 ft 453 kts 215°
2026-04-28 09:27 5.23357 74.36129 33762 ft 446 kts 216°
2026-04-28 09:27 5.20896 74.34312 33212 ft 445 kts 216°
2026-04-28 09:27 5.18414 74.32478 32714 ft 442 kts 216°
2026-04-28 09:28 5.15946 74.30653 32203 ft 440 kts 216°
2026-04-28 09:28 5.13487 74.28838 31706 ft 438 kts 216°
2026-04-28 09:28 5.11033 74.27031 31199 ft 436 kts 216°
2026-04-28 09:28 5.08592 74.25235 30705 ft 435 kts 216°
2026-04-28 09:29 5.06158 74.23446 30202 ft 433 kts 216°
2026-04-28 09:29 5.03731 74.21660 29676 ft 432 kts 216°
2026-04-28 09:29 5.01346 74.19902 29165 ft 429 kts 216°
2026-04-28 09:29 4.98952 74.18140 28698 ft 426 kts 216°
2026-04-28 09:30 4.96569 74.16389 28224 ft 423 kts 216°
2026-04-28 09:30 4.94204 74.14655 27765 ft 420 kts 216°
2026-04-28 09:30 4.91856 74.12931 27311 ft 417 kts 216°
2026-04-28 09:30 4.89523 74.11214 26872 ft 415 kts 216°
2026-04-28 09:31 4.87202 74.09507 26439 ft 413 kts 216°
2026-04-28 09:31 4.84887 74.07806 26003 ft 411 kts 216°
2026-04-28 09:31 4.82585 74.06114 25568 ft 410 kts 216°
2026-04-28 09:31 4.80291 74.04427 25116 ft 409 kts 216°
2026-04-28 09:32 4.78034 74.02768 24700 ft 407 kts 216°
2026-04-28 09:32 4.75747 74.01091 24259 ft 406 kts 216°
2026-04-28 09:32 4.73467 73.99423 23813 ft 406 kts 216°
2026-04-28 09:32 4.71190 73.97755 23343 ft 405 kts 216°
2026-04-28 09:33 4.68920 73.96085 22830 ft 404 kts 216°
2026-04-28 09:33 4.66663 73.94425 22359 ft 401 kts 216°
2026-04-28 09:33 4.64414 73.92773 21890 ft 399 kts 216°
2026-04-28 09:33 4.62182 73.91134 21406 ft 397 kts 216°
2026-04-28 09:34 4.59962 73.89502 20945 ft 395 kts 216°
2026-04-28 09:34 4.57783 73.87899 20459 ft 393 kts 215°
2026-04-28 09:34 4.55582 73.86280 19985 ft 391 kts 215°
2026-04-28 09:34 4.53395 73.84672 19503 ft 389 kts 215°
2026-04-28 09:35 4.51216 73.83073 19031 ft 387 kts 215°
2026-04-28 09:35 4.49051 73.81485 18551 ft 382 kts 215°
2026-04-28 09:35 4.46941 73.79936 18094 ft 369 kts 215°
2026-04-28 09:35 4.44905 73.78449 17614 ft 355 kts 213°
2026-04-28 09:36 4.42794 73.77280 17189 ft 340 kts 200°
2026-04-28 09:36 4.40567 73.76624 16822 ft 330 kts 188°
2026-04-28 09:36 4.38289 73.76447 16439 ft 328 kts 178°
2026-04-28 09:36 4.36035 73.76458 16029 ft 329 kts 178°
2026-04-28 09:37 4.33747 73.76461 15609 ft 329 kts 178°
2026-04-28 09:37 4.31453 73.76461 15188 ft 330 kts 179°
2026-04-28 09:37 4.29153 73.76459 14765 ft 331 kts 179°
2026-04-28 09:37 4.26846 73.76457 14341 ft 332 kts 179°
2026-04-28 09:38 4.24530 73.76455 13915 ft 333 kts 179°
2026-04-28 09:38 4.22220 73.76454 13466 ft 329 kts 179°
2026-04-28 09:38 4.19947 73.76454 13029 ft 326 kts 179°
2026-04-28 09:38 4.17705 73.76456 12615 ft 326 kts 179°
2026-04-28 09:39 4.15453 73.76461 12356 ft 321 kts 179°
2026-04-28 09:39 4.13229 73.76465 11988 ft 319 kts 179°
2026-04-28 09:39 4.11007 73.76468 11580 ft 320 kts 179°
2026-04-28 09:39 4.08784 73.76470 11171 ft 320 kts 179°
2026-04-28 09:40 4.06558 73.76473 10763 ft 320 kts 178°
2026-04-28 09:40 4.04326 73.76474 10353 ft 321 kts 178°
2026-04-28 09:40 4.02110 73.76476 10078 ft 312 kts 178°
2026-04-28 09:40 3.99985 73.76476 9716 ft 302 kts 178°
2026-04-28 09:41 3.97929 73.76315 9387 ft 302 kts 194°
2026-04-28 09:41 3.96127 73.75259 9033 ft 303 kts 225°
2026-04-28 09:41 3.95066 73.73447 8561 ft 306 kts 257°
2026-04-28 09:41 3.94878 73.71365 8095 ft 299 kts 269°
2026-04-28 09:42 3.94866 73.69295 7507 ft 296 kts 270°
2026-04-28 09:42 3.94877 73.67247 6961 ft 293 kts 271°
2026-04-28 09:42 3.94894 73.65217 6427 ft 290 kts 271°
2026-04-28 09:42 3.94906 73.63212 5871 ft 287 kts 270°
2026-04-28 09:43 3.94908 73.61255 5331 ft 283 kts 270°
2026-04-28 09:43 3.94908 73.59298 4836 ft 278 kts 270°
2026-04-28 09:43 3.95125 73.57386 4283 ft 279 kts 288°
2026-04-28 09:43 3.95955 73.55667 4087 ft 271 kts 306°
2026-04-28 09:44 3.97242 73.54327 3892 ft 263 kts 324°
2026-04-28 09:44 3.98798 73.53474 3645 ft 249 kts 341°
2026-04-28 09:44 4.00453 73.53129 3374 ft 241 kts 357°
2026-04-28 09:44 4.02124 73.53116 3073 ft 239 kts 360°
2026-04-28 09:45 4.03785 73.53116 2767 ft 238 kts 359°
2026-04-28 09:45 4.05439 73.53115 2458 ft 237 kts 359°
2026-04-28 09:45 4.07057 73.53114 2154 ft 233 kts 360°
2026-04-28 09:45 4.08642 73.53112 1861 ft 223 kts 359°
2026-04-28 09:46 4.10144 73.53111 1586 ft 210 kts 359°
2026-04-28 09:46 4.11559 73.53110 1341 ft 196 kts 359°
2026-04-28 09:46 4.12856 73.53108 1094 ft 175 kts 358°
2026-04-28 09:46 4.13994 73.53107 876 ft 156 kts 359°
2026-04-28 09:47 4.15055 73.53106 697 ft 150 kts 359°
2026-04-28 09:47 4.16090 73.53105 512 ft 148 kts 357°
2026-04-28 09:47 4.17105 73.53104 330 ft 147 kts 357°
2026-04-28 09:47 4.18123 73.53109 160 ft 146 kts 357°
2026-04-28 09:48 4.19135 73.53109 51 ft 144 kts 356°
2026-04-28 09:48 4.20098 73.53113 30 ft 127 kts 355°
2026-04-28 09:48 4.20994 73.53113 320 ft 131 kts 356°
2026-04-28 09:48 4.21896 73.53106 960 ft 132 kts 356°
2026-04-28 09:49 4.22832 73.53103 1385 ft 140 kts 359°
2026-04-28 09:49 4.23890 73.53112 1549 ft 164 kts 359°
2026-04-28 09:49 4.25115 73.53122 1861 ft 188 kts 359°
2026-04-28 09:49 4.26488 73.53133 2293 ft 212 kts
2026-04-28 09:50 4.28016 73.53145 3016 ft 223 kts 360°
2026-04-28 09:50 4.29584 73.53158 3695 ft 227 kts
2026-04-28 09:50 4.31159 73.53170 3933 ft 225 kts
2026-04-28 09:50 4.32724 73.53262 4004 ft 226 kts 14°
2026-04-28 09:51 4.34106 73.53973 4020 ft 226 kts 42°
2026-04-28 09:51 4.34976 73.55268 4020 ft 227 kts 71°
2026-04-28 09:51 4.35117 73.56835 4024 ft 229 kts 100°
2026-04-28 09:51 4.34481 73.58283 4023 ft 230 kts 129°
2026-04-28 09:52 4.33240 73.59238 4024 ft 231 kts 157°
2026-04-28 09:52 4.31683 73.59601 4030 ft 231 kts 172°
2026-04-28 09:52 4.30087 73.59832 4024 ft 232 kts 172°
2026-04-28 09:52 4.28490 73.60062 4024 ft 232 kts 172°
2026-04-28 09:53 4.26896 73.60289 4018 ft 231 kts 172°
2026-04-28 09:53 4.25298 73.60514 4020 ft 232 kts 172°
2026-04-28 09:53 4.23701 73.60738 4024 ft 231 kts 172°
2026-04-28 09:53 4.22109 73.60962 4028 ft 231 kts 172°
2026-04-28 09:54 4.20522 73.61185 4006 ft 230 kts 172°
2026-04-28 09:54 4.18952 73.61407 4004 ft 231 kts 172°
2026-04-28 09:54 4.17360 73.61634 4003 ft 231 kts 172°
2026-04-28 09:54 4.15768 73.61861 4006 ft 231 kts 172°
2026-04-28 09:55 4.14180 73.62087 4007 ft 231 kts 172°
2026-04-28 09:55 4.12588 73.62311 4008 ft 231 kts 172°
2026-04-28 09:55 4.11000 73.62536 4008 ft 230 kts 172°
2026-04-28 09:55 4.09414 73.62760 4010 ft 230 kts 172°
2026-04-28 09:56 4.07826 73.62983 4008 ft 230 kts 172°
2026-04-28 09:56 4.06263 73.63203 4011 ft 230 kts 172°
2026-04-28 09:56 4.04677 73.63428 4007 ft 231 kts 172°
2026-04-28 09:56 4.03087 73.63654 4013 ft 231 kts 172°
2026-04-28 09:57 4.01495 73.63879 4015 ft 232 kts 172°
2026-04-28 09:57 3.99898 73.64106 4013 ft 231 kts 172°
2026-04-28 09:57 3.98309 73.64324 4012 ft 230 kts 175°
2026-04-28 09:57 3.96742 73.64099 4011 ft 229 kts 205°
2026-04-28 09:58 3.95504 73.63129 4013 ft 228 kts 236°
2026-04-28 09:58 3.94930 73.61676 4014 ft 226 kts 266°
2026-04-28 09:58 3.94908 73.60123 4019 ft 227 kts 271°
2026-04-28 09:58 3.94910 73.58544 4016 ft 227 kts 271°
2026-04-28 09:59 3.94913 73.56968 4014 ft 226 kts 273°
2026-04-28 09:59 3.95254 73.55441 4012 ft 226 kts 295°
2026-04-28 09:59 3.96156 73.54169 4010 ft 225 kts 318°
2026-04-28 09:59 3.97458 73.53351 3870 ft 219 kts 341°
2026-04-28 10:00 3.98936 73.53115 3643 ft 215 kts 360°
2026-04-28 10:00 4.00422 73.53117 3380 ft 213 kts 359°
2026-04-28 10:00 4.01877 73.53118 3121 ft 212 kts 359°
2026-04-28 10:00 4.03349 73.53117 2848 ft 211 kts 359°
2026-04-28 10:01 4.04813 73.53115 2580 ft 210 kts 359°
2026-04-28 10:01 4.06276 73.53114 2311 ft 210 kts 359°
2026-04-28 10:01 4.07736 73.53113 2039 ft 210 kts 359°
2026-04-28 10:01 4.09187 73.53111 1789 ft 205 kts 359°
2026-04-28 10:02 4.10567 73.53110 1521 ft 190 kts 359°
2026-04-28 10:02 4.11806 73.53109 1290 ft 166 kts 359°
2026-04-28 10:02 4.12902 73.53108 1075 ft 152 kts 359°
2026-04-28 10:02 4.13927 73.53107 891 ft 148 kts 359°
2026-04-28 10:03 4.14950 73.53106 720 ft 147 kts 359°
2026-04-28 10:03 4.15973 73.53104 540 ft 147 kts 357°
2026-04-28 10:03 4.16993 73.53104 352 ft 146 kts 356°
2026-04-28 10:03 4.18007 73.53109 173 ft 146 kts 356°
2026-04-28 10:04 4.19013 73.53110 40 ft 143 kts 355°
2026-04-28 10:04 4.19913 73.53098 16 ft 115 kts 357°
2026-04-28 10:04 4.20544 73.53101 18 ft 66 kts 359°
2026-04-28 10:04 4.20833 73.53099 19 ft 17 kts 359°
2026-04-28 10:05 4.20926 73.53060 19 ft 16 kts 295°
2026-04-28 10:05 4.20927 73.52939 17 ft 18 kts 252°
2026-04-28 10:05 4.20826 73.52901 17 ft 17 kts 188°
2026-04-28 10:05 4.20700 73.52893 19 ft 19 kts 180°
2026-04-28 10:06 4.20556 73.52893 17 ft 22 kts 179°
2026-04-28 10:06 4.20395 73.52892 16 ft 24 kts 181°
2026-04-28 10:06 4.20218 73.52896 16 ft 27 kts 177°
2026-04-28 10:06 4.20050 73.52901 16 ft 5 kts 179°
2026-04-28 10:07 4.20006 73.52902 16 ft 8 kts 179°
2026-04-28 10:07 4.19944 73.52903 16 ft 10 kts 179°
2026-04-28 10:07 4.19866 73.52904 16 ft 12 kts 179°
2026-04-28 10:07 4.19772 73.52905 16 ft 15 kts 179°
2026-04-28 10:08 4.19662 73.52907 16 ft 17 kts 179°
2026-04-28 10:08 4.19535 73.52910 16 ft 19 kts 178°
2026-04-28 10:08 4.19392 73.52912 16 ft 22 kts 179°
2026-04-28 10:08 4.19233 73.52915 17 ft 24 kts 179°
2026-04-28 10:09 4.19061 73.52917 17 ft 26 kts 179°
2026-04-28 10:09 4.18920 73.52919 17 ft 16 kts 178°
2026-04-28 10:09 4.18800 73.52921 17 ft 19 kts 179°
2026-04-28 10:09 4.18686 73.52911 19 ft 14 kts 223°
2026-04-28 10:10 4.18612 73.52854 17 ft 16 kts 178°
2026-04-28 10:10 4.18495 73.52855 16 ft 14 kts 180°
2026-04-28 10:10 4.18456 73.52839 16 ft 7 kts 246°
2026-04-28 10:10 4.18457 73.52803 16 ft 3 kts 268°
2026-04-28 10:11 4.18457 73.52773 16 ft 6 kts 270°
2026-04-28 10:11 4.18457 73.52759 16 ft 0 kts 270°